Regional Weather Roundup
Issued by NWS

Home | Current Version | Previous Version | Text Only | Print | Product List | Glossary On
Versions: 1 2 3 4 5 6 7 8 9 10 11 12 13 14 15 16 17 18 19 20 21 22 23 24 25 26 27 28 29 30 31 32 33 34 35 36 37 38 39 40 41 42 43 44 45 46 47 48 49 50
000
ASUS44 KOUN 271000
RWROK

WEATHER ROUNDUP FOR OKLAHOMA
NATIONAL WEATHER SERVICE NORMAN OK
500 AM CDT SAT AUG 27 2016

NOTE: "FAIR" INDICATES FEW OR NO CLOUDS BELOW 12,000 FEET WITH NO
      SIGNIFICANT WEATHER AND/OR OBSTRUCTIONS TO VISIBILITY.

OKZ001>007-009>012-014-015-017-271100-
NORTHWEST OKLAHOMA AND THE PANHANDLE

CITY           SKY/WX    TMP DP  RH WIND       PRES   REMARKS
GAGE           MOCLDY    66  63  90 S3        30.02R
GUYMON         CLEAR     63  58  83 SW9       30.04S
$$

OKZ016-021>023-033>039-044-045-271100-
SOUTHWEST OKLAHOMA

CITY           SKY/WX    TMP DP  RH WIND       PRES   REMARKS
LAWTON/REGL    PTCLDY    72  69  90 SE5       29.99S
LAWTON/FT SILL CLEAR     72  70  95 S3        29.98R
FREDERICK      CLEAR     73  70  90 S6        29.97S
CLINTON        PTCLDY    72  68  87 S8        30.02S
HOBART         CLEAR     73  70  90 S10       30.00F
$$

OKZ018>020-024>031-271100-
CENTRAL OKLAHOMA

CITY           SKY/WX    TMP DP  RH WIND       PRES   REMARKS
OKLAHOMA CITY  PTCLDY    69  68  96 S5        29.99S
OKC/WILEY POST CLOUDY    72  68  87 SW10      29.99R
OKC/TINKER AFB PTCLDY    69  67  91 S9        29.99S
STILLWATER     PTCLDY    70  68  93 SE6       29.99R
GUTHRIE        PTCLDY    71  69  93 S3        29.99R
$$

OKZ008-013-054>072-271100-
NORTHEAST OKLAHOMA

CITY           SKY/WX    TMP DP  RH WIND       PRES   REMARKS
TULSA          MOCLDY    74  73  97 S7        30.00R
TULSA/JONES    PTCLDY    71  71 100 CALM      30.01R FOG
PONCA CITY     PTCLDY    71  67  87 SE6       29.99R
BARTLESVILLE   CLOUDY    67  66  97 CALM      30.02R FOG
MUSKOGEE       FOG       70  69  97 S5        30.02F VSB 1/2
$$

OKZ032-040>043-046>053-073>077-271100-
SOUTH CENTRAL/SOUTHEAST OKLAHOMA

CITY           SKY/WX    TMP DP  RH WIND       PRES   REMARKS
MCALESTER      PTCLDY    70  67  90 CALM      30.03S
$$





USA.gov is the U.S. government's official web portal to all federal, state and local government web resources and services.